SL-12 R/B(2), 18387

Orbit data source: Space-Track

SL-12 R/B(2), 18387 is space debris in GEO originally from a launch on Thu, 01 Oct 1987 UTC launched from the Tyuratam Missile And Space Complex (TTMTR). Debris objects in space refer to the collection of defunct objects orbiting the Earth. Examples of debris include non-operational satellites, rocket bodies, and fragments generated from explosions, collisions, or faulty payload assembly.

Loading next visibility...
Identifier
18387, 1987-084D
Orbit
GEO
Country
Flag of CISCIS
Related business
Manufacturer
NPO Energiya
Mission
Spacecraft
Bus & Motor
BLOK DM, Unknown motor
Mass
2,440 kg wet, 2,440 kg dry
Launch date (UTC)
1987-10-01 (38 years ago)
Launch vehicle
Unknown
Launch site
Tyuratam Missile And Space Complex (TTMTR)
Object type
Payload
Rocket body
Debris
Shape & HBR
Cyl, 3.1 m
Radar Cross Section
23.597 m², Large (>1 m²)

Expand to show TLE details & history
Last TLE update: 8 hours ago

TLE from 8 hours ago
0 SL-12 R/B(2)
1 18387U 87084D   25289.47485898 -.00000318  00000-0  00000-0 0  9996
2 18387  11.2923 328.2288 0031013 244.1124 297.1270  1.00049749146335
Epoch: 2025-10-16T11:23Z
TLE epoch observation values (Epoch: 2025-10-16T11:23:47.815Z)
Latitude
-0.19199°
Longitude
-47.04019°
Altitude
35,788.599 km
Speed
3.077 km/s
True Right ascension
09h 56m 34s
True Declination
0° 11' 30"
Sunlit
Object was in daylight at epoch
Visualization orbit readout
Latitude
Unknown
Longitude
Unknown
Altitude
Unknown
Speed
Unknown
Apparent Right ascension
Unknown
Apparent Declination
Unknown
Sunlit
N/A
Visualization observer readout
Local Sidereal Time
14:10:13
Azimuth
Unknown
Elevation
Unknown
Doppler factor
Unknown
Orbital elements
Apogee altitude
35,980.926 km
Perigee altitude
35,719.002 km
Semi-major axis
42,228.101 km
Eccentricity
0.0031
Inclination
11.2923°
RAAN
328.2288°
Arg. of periapsis
244.1124°
True anomaly
296.81015°
Mean anomaly
297.127°
Eccentric anomaly
296.96863°
Mean motion
0.25012 °/min
Orbital period
1,439.33 mins
BSTAR
0
Loading maneuver chart data...
Computing Atmospheric mass density...
Loading historical data...
Loading historical data...
Loading historical data...
Loading historical data...
Loading historical data...
Loading historical data...
Loading historical data...

Documentation

Showing up to 5 results
|